Snowfall_Accumulation
0.0 0.0 0.0 0.0 0.0 0.0 0.0 0.0 0.0 0.0 0.0 0.0 0.0 0.0 0.0 0.0 0.0 0.0 0.0 0.0 0.0 0.0 0.0 0.0 0.0 0.0 0.0 0.0 0.0 0.0 0.0 0.0 0.0 0.0 0.0 0.0 0.0 0.0 0.0 0.0 0.0 0.0 0.0
0.0 0.0 0.0 0.0 0.0 0.0 0.0 0.0 0.0 0.0 0.0 0.0 0.0 0.0 0.0 0.0 0.0 0.0 0.0 0.0 0.0 0.0 0.0 0.0 0.0 0.0 0.0 0.0 0.0 0.0 0.0 0.0 0.0 0.0 0.0 0.0 0.0 0.0 0.0 0.0 0.0 0.0 0.0
0.0 0.0 0.0 0.0 0.0 0.0 0.0 0.0 0.0 0.0 0.0 0.0 0.0 0.0 0.0 0.0 0.0 0.0 0.0 0.0 0.0 0.0 0.0 0.0 0.0 0.0 0.0 0.0 0.0 0.0 0.0 0.0 0.0 0.0 0.0 0.0 0.0 0.0 0.0 0.0 0.0 0.0 0.0
0.0 0.0 0.0 0.0 0.0 0.0 0.0 0.0 0.0 0.0 0.0 0.0 0.0 0.0 0.0 0.0 0.0 0.0 0.0 0.0 0.0 0.0 0.0 0.0 0.0 0.0 0.0 0.0 0.0 0.0 0.0 0.0 0.0 0.0 0.0 0.0 0.0 0.0 0.0 0.0 0.0 0.0 0.0
0.0 0.0 0.0 0.0 0.0 0.0 0.0 0.0 0.0 0.0 0.0 0.0 0.0 0.0 0.0 0.0 0.0 0.0 0.0 0.0 0.0 0.0 0.0 0.0 0.0 0.0 0.0 0.0 0.0 0.0 0.0 0.0 0.0 0.0 0.0 0.0 0.0 0.0 0.0 0.0 0.0 0.0 0.0
0.2 0.1 0.0 0.0 0.0 0.0 0.0 0.0 0.0 0.0 0.0 0.0 0.0 0.0 0.0 0.0 0.0 0.0 0.0 0.0 0.0 0.0 0.0 0.0 0.0 0.0 0.0 0.0 0.0 0.0 0.0 0.0 0.0 0.0 0.0 0.0 0.0 0.0 0.0 0.0 0.0 0.0 0.0
0.2 0.2 0.1 0.1 0.0 0.0 0.0 0.0 0.0 0.0 0.0 0.0 0.0 0.0 0.0 0.0 0.0 0.0 0.0 0.0 0.0 0.0 0.0 0.0 0.0 0.0 0.0 0.0 0.0 0.0 0.0 0.0 0.0 0.0 0.0 0.0 0.0 0.0 0.0 0.0 0.0 0.0 0.0
0.6 0.6 0.5 0.4 0.1 0.1 0.0 0.0 0.0 0.0 0.0 0.0 0.0 0.0 0.0 0.0 0.0 0.0 0.0 0.0 0.0 0.0 0.0 0.0 0.0 0.0 0.0 0.0 0.0 0.0 0.0 0.0 0.0 0.0 0.0 0.0 0.0 0.0 0.0 0.0 0.0 0.0 0.0
1.1 1.2 0.7 0.6 0.5 0.2 0.1 0.1 0.0 0.0 0.0 0.0 0.0 0.0 0.0 0.0 0.0 0.0 0.0 0.0 0.0 0.0 0.0 0.0 0.0 0.0 0.0 0.0 0.0 0.0 0.0 0.0 0.0 0.0 0.0 0.0 0.0 0.0 0.0 0.0 0.0 0.0 0.0
1.6 1.8 1.4 1.3 0.8 0.6 0.5 0.2 0.1 0.1 0.0 0.0 0.0 0.0 0.0 0.0 0.0 0.0 0.0 0.0 0.0 0.0 0.0 0.0 0.0 0.0 0.0 0.0 0.0 0.0 0.0 0.0 0.0 0.0 0.0 0.0 0.0 0.0 0.0 0.0 0.0 0.0 0.0
2.3 2.5 2.6 1.8 2.0 1.0 0.8 0.7 0.4 0.2 0.1 0.0 0.0 0.0 0.0 0.0 0.0 0.0 0.0 0.0 0.0 0.0 0.0 0.0 0.0 0.0 0.0 0.0 0.0 0.0 0.0 0.0 0.0 0.0 0.0 0.0 0.0 0.0 0.0 0.0 0.0 0.0 0.0
3.4 3.0 2.8 3.5 2.5 2.5 1.4 1.2 1.0 0.7 0.3 0.2 0.1 0.0 0.0 0.0 0.0 0.0 0.0 0.0 0.0 0.0 0.0 0.0 0.0 0.0 0.0 0.0 0.0 0.0 0.0 0.0 0.0 0.0 0.0 0.0 0.0 0.0 0.0 0.0 0.0 0.0 0.0
2.4 2.7 1.9 2.8 3.8 3.5 3.5 1.9 1.5 1.5 0.8 0.6 0.3 0.1 0.0 0.0 0.0 0.0 0.0 0.0 0.0 0.0 0.0 0.0 0.0 0.0 0.0 0.0 0.0 0.0 0.0 0.0 0.0 0.0 0.0 0.0 0.0 0.0 0.0 0.0 0.0 0.0 0.0
3.7 3.2 2.5 3.2 3.8 4.5 5.2 4.3 2.7 1.5 1.7 1.1 0.6 0.4 0.2 0.0 0.0 0.0 0.0 0.0 0.0 0.0 0.0 0.0 0.0 0.0 0.0 0.0 0.0 0.0 0.0 0.0 0.0 0.0 0.0 0.0 0.0 0.0 0.0 0.0 0.0 0.0 0.0
2.7 3.3 4.2 4.1 4.1 4.5 4.3 5.0 4.3 3.8 2.0 2.1 1.3 0.9 0.4 0.1 0.0 0.0 0.0 0.0 0.0 0.0 0.0 0.0 0.0 0.0 0.0 0.0 0.0 0.0 0.0 0.0 0.0 0.0 0.0 0.0 nan nan nan 0.0 0.0 0.0 0.0
3.3 3.6 3.5 3.4 3.6 5.3 5.9 5.7 6.3 5.0 4.7 2.3 2.6 1.6 1.0 0.4 0.1 0.0 0.0 0.0 0.0 0.0 0.0 0.0 0.0 0.0 0.0 nan nan 0.0 0.0 0.0 0.0 0.0 0.0 0.0 0.0 0.0 nan nan nan nan 0.0
4.7 4.2 4.8 5.0 5.0 5.5 6.5 6.4 6.6 6.5 5.5 6.0 2.9 2.9 1.6 1.0 0.6 0.0 0.0 0.0 0.0 0.0 0.0 0.0 0.0 0.0 0.0 nan nan nan 0.0 0.0 0.0 0.0 0.0 0.0 0.0 nan 0.0 nan nan nan nan
6.0 5.0 4.3 4.0 4.5 4.6 4.0 4.7 4.9 6.2 6.4 6.3 5.7 3.7 3.5 2.0 0.9 0.6 0.2 0.0 0.0 0.0 0.0 0.0 0.0 0.0 0.0 nan nan nan 0.0 0.0 0.0 0.0 0.0 0.0 0.0 0.0 0.0 0.0 0.0 0.0 0.0
6.7 8.2 7.9 6.7 4.7 5.3 4.5 4.5 4.3 4.6 4.9 5.5 6.6 6.4 4.9 4.5 2.3 1.3 1.1 0.2 0.0 0.0 0.0 0.0 0.0 0.0 0.0 nan nan 0.0 0.0 0.0 0.0 0.0 0.0 0.0 0.0 nan nan 0.0 0.0 0.0 0.0
7.0 6.3 5.2 6.4 3.3 4.2 4.5 4.4 4.7 4.0 4.4 5.1 6.1 6.2 6.4 6.2 6.0 2.9 1.8 1.0 0.4 0.2 0.0 0.0 0.0 nan 0.0 nan nan nan 0.0 0.0 0.0 0.0 0.0 nan 0.0 nan nan 0.0 0.0 0.0 0.0
4.7 4.5 3.8 5.2 6.3 4.8 4.7 4.8 5.0 5.9 6.0 5.0 4.7 4.3 4.7 5.2 7.3 6.5 3.9 2.3 1.3 0.6 0.9 0.5 0.3 0.0 0.0 0.0 nan nan 0.0 0.0 0.0 0.0 0.0 0.0 nan nan nan nan 0.0 0.0 0.0
2.0 1.6 2.5 2.7 2.7 2.3 2.8 3.9 3.5 5.1 4.4 4.7 4.6 4.4 4.5 4.5 3.9 5.8 6.7 4.6 3.9 3.3 2.2 2.2 2.0 0.9 0.0 nan nan nan nan nan 0.0 0.0 0.0 0.0 nan nan nan nan nan nan nan
1.3 1.3 2.4 2.3 1.4 1.6 2.3 1.8 3.4 3.0 2.8 2.4 3.6 4.6 4.7 4.3 4.0 3.6 4.7 6.5 5.2 5.9 6.2 4.6 3.5 2.9 1.0 0.2 nan nan nan nan 0.0 0.0 0.0 nan nan nan nan nan nan nan 0.2
0.1 0.2 0.4 0.9 1.2 1.2 1.4 1.9 2.2 2.0 2.0 2.1 2.5 2.8 3.4 3.9 4.2 3.9 3.6 3.8 4.6 5.6 6.4 5.8 6.0 4.2 2.5 0.9 0.2 0.0 0.0 nan 0.0 nan 0.0 nan 0.0 nan nan 0.0 0.0 0.0 0.0
0.0 0.0 0.1 0.1 0.5 0.5 0.8 0.9 0.9 0.8 1.4 1.8 2.3 2.7 2.6 3.9 4.0 4.1 5.9 5.0 4.7 5.0 5.3 5.0 4.5 5.0 5.0 3.1 1.2 0.2 0.0 0.0 0.0 nan 0.0 0.2 0.3 0.2 0.2 0.2 0.0 0.1 0.2
0.1 0.1 0.1 0.1 0.2 0.5 0.7 0.7 0.8 1.1 1.7 1.9 2.7 3.0 2.8 3.2 3.2 3.2 3.2 nan nan nan nan nan 3.1 2.6 nan nan nan nan nan nan nan 0.3 0.4 0.6 0.3 0.4 0.4 0.4 0.7 0.8 0.9
Water_Equivalent
0.00 0.00 0.00 0.00 0.00 0.00 0.00 0.00 0.00 0.00 0.00 0.00 0.00 0.00 0.00 0.00 0.00 0.00 0.00 0.00 0.00 0.00 0.00 0.00 0.00 0.00 0.00 0.00 0.00 0.00 0.00 0.00 0.00 0.00 0.00 0.00 0.00 0.00 0.00 0.00 0.00 0.00 0.00
0.00 0.00 0.00 0.00 0.00 0.00 0.00 0.00 0.00 0.00 0.00 0.00 0.00 0.00 0.00 0.00 0.00 0.00 0.00 0.00 0.00 0.00 0.00 0.00 0.00 0.00 0.00 0.00 0.00 0.00 0.00 0.00 0.00 0.00 0.00 0.00 0.00 0.00 0.00 0.00 0.00 0.00 0.00
0.00 0.00 0.00 0.00 0.00 0.00 0.00 0.00 0.00 0.00 0.00 0.00 0.00 0.00 0.00 0.00 0.00 0.00 0.00 0.00 0.00 0.00 0.00 0.00 0.00 0.00 0.00 0.00 0.00 0.00 0.00 0.00 0.00 0.00 0.00 0.00 0.00 0.00 0.00 0.00 0.00 0.00 0.00
0.00 0.00 0.00 0.00 0.00 0.00 0.00 0.00 0.00 0.00 0.00 0.00 0.00 0.00 0.00 0.00 0.00 0.00 0.00 0.00 0.00 0.00 0.00 0.00 0.00 0.00 0.00 0.00 0.00 0.00 0.00 0.00 0.00 0.00 0.00 0.00 0.00 0.00 0.00 0.00 0.00 0.00 0.00
0.00 0.00 0.00 0.00 0.00 0.00 0.00 0.00 0.00 0.00 0.00 0.00 0.00 0.00 0.00 0.00 0.00 0.00 0.00 0.00 0.00 0.00 0.00 0.00 0.00 0.00 0.00 0.00 0.00 0.00 0.00 0.00 0.00 0.00 0.00 0.00 0.00 0.00 0.00 0.00 0.00 0.00 0.00
0.02 0.01 0.00 0.00 0.00 0.00 0.00 0.00 0.00 0.00 0.00 0.00 0.00 0.00 0.00 0.00 0.00 0.00 0.00 0.00 0.00 0.00 0.00 0.00 0.00 0.00 0.00 0.00 0.00 0.00 0.00 0.00 0.00 0.00 0.00 0.00 0.00 0.00 0.00 0.00 0.00 0.00 0.00
0.03 0.02 0.01 0.01 0.00 0.00 0.00 0.00 0.00 0.00 0.00 0.00 0.00 0.00 0.00 0.00 0.00 0.00 0.00 0.00 0.00 0.00 0.00 0.00 0.00 0.00 0.00 0.00 0.00 0.00 0.00 0.00 0.00 0.00 0.00 0.00 0.00 0.00 0.00 0.00 0.00 0.00 0.00
0.07 0.08 0.06 0.04 0.02 0.01 0.00 0.00 0.00 0.00 0.00 0.00 0.00 0.00 0.00 0.00 0.00 0.00 0.00 0.00 0.00 0.00 0.00 0.00 0.00 0.00 0.00 0.00 0.00 0.00 0.00 0.00 0.00 0.00 0.00 0.00 0.00 0.00 0.00 0.00 0.00 0.00 0.00
0.12 0.14 0.09 0.08 0.06 0.03 0.01 0.01 0.00 0.00 0.00 0.00 0.00 0.00 0.00 0.00 0.00 0.00 0.00 0.00 0.00 0.00 0.00 0.00 0.00 0.00 0.00 0.00 0.00 0.00 0.00 0.00 0.00 0.00 0.00 0.00 0.00 0.00 0.00 0.00 0.00 0.00 0.00
0.17 0.20 0.16 0.15 0.10 0.07 0.06 0.03 0.02 0.01 0.00 0.00 0.00 0.00 0.00 0.00 0.00 0.00 0.00 0.00 0.00 0.00 0.00 0.00 0.00 0.00 0.00 0.00 0.00 0.00 0.00 0.00 0.00 0.00 0.00 0.00 0.00 0.00 0.00 0.00 0.00 0.00 0.00
0.24 0.27 0.30 0.21 0.24 0.12 0.10 0.08 0.05 0.04 0.01 0.00 0.00 0.00 0.00 0.00 0.00 0.00 0.00 0.00 0.00 0.00 0.00 0.00 0.00 0.00 0.00 0.00 0.00 0.00 0.00 0.00 0.00 0.00 0.00 0.00 0.00 0.00 0.00 0.00 0.00 0.00 0.00
0.36 0.33 0.32 0.41 0.30 0.30 0.17 0.14 0.12 0.08 0.05 0.03 0.01 0.00 0.00 0.00 0.00 0.00 0.00 0.00 0.00 0.00 0.00 0.00 0.00 0.00 0.00 0.00 0.00 0.00 0.00 0.00 0.00 0.00 0.00 0.00 0.00 0.00 0.00 0.00 0.00 0.00 0.00
0.24 0.28 0.21 0.31 0.44 0.42 0.42 0.23 0.19 0.18 0.11 0.08 0.04 0.02 0.00 0.00 0.00 0.00 0.00 0.00 0.00 0.00 0.00 0.00 0.00 0.00 0.00 0.00 0.00 0.00 0.00 0.00 0.00 0.00 0.00 0.00 0.00 0.00 0.00 0.00 0.00 0.00 0.00
0.35 0.31 0.26 0.33 0.43 0.54 0.64 0.50 0.35 0.20 0.23 0.16 0.10 0.07 0.03 0.00 0.00 0.00 0.00 0.00 0.00 0.00 0.00 0.00 0.00 0.00 0.00 0.00 0.00 0.00 0.00 0.00 0.00 0.00 0.00 0.00 0.00 0.00 0.00 0.00 0.00 0.00 0.00
0.23 0.30 0.40 0.40 0.43 0.49 0.50 0.65 0.53 0.50 0.26 0.28 0.19 0.15 0.08 0.02 0.00 0.00 0.00 0.00 0.00 0.00 0.00 0.00 0.00 0.00 0.00 0.00 0.00 0.00 0.00 0.00 0.00 0.00 0.00 0.00 nan nan nan 0.00 0.00 0.00 0.00
0.28 0.32 0.32 0.33 0.36 0.55 0.64 0.66 0.83 0.62 0.69 0.33 0.37 0.26 0.17 0.10 0.01 0.00 0.00 0.00 0.00 0.00 0.00 0.00 0.00 0.00 0.00 nan nan 0.00 0.00 0.00 0.00 0.00 0.00 0.00 0.00 0.00 nan nan nan nan 0.00
0.40 0.35 0.42 0.46 0.48 0.55 0.69 0.69 0.76 0.84 0.70 0.87 0.46 0.44 0.27 0.19 0.15 0.01 0.00 0.00 0.00 0.00 0.00 0.00 0.00 0.00 0.00 nan nan nan 0.00 0.00 0.00 0.00 0.00 0.00 0.00 nan 0.00 nan nan nan nan
0.55 0.47 0.41 0.38 0.44 0.47 0.42 0.52 0.57 0.73 0.78 0.80 0.84 0.61 0.57 0.33 0.19 0.15 0.03 0.00 0.00 0.00 0.00 0.00 0.00 0.00 0.00 nan nan nan 0.00 0.00 0.00 0.00 0.00 0.00 0.00 0.00 0.00 0.00 0.00 0.00 0.00
0.63 0.78 0.80 0.68 0.50 0.54 0.47 0.47 0.46 0.51 0.55 0.64 0.84 0.91 0.81 0.77 0.43 0.30 0.29 0.04 0.00 0.00 0.00 0.00 0.00 0.00 0.00 nan nan 0.00 0.00 0.00 0.00 0.00 0.00 0.00 0.00 nan nan 0.00 0.00 0.00 0.00
0.68 0.60 0.53 0.69 0.38 0.46 0.49 0.47 0.48 0.41 0.45 0.57 0.75 0.82 0.90 1.01 1.03 0.59 0.43 0.27 0.07 0.04 0.00 0.00 0.00 nan 0.00 nan nan nan 0.00 0.00 0.00 0.00 0.00 nan 0.00 nan nan 0.00 0.00 0.00 0.00
0.43 0.45 0.39 0.50 0.64 0.53 0.52 0.51 0.52 0.59 0.65 0.59 0.59 0.56 0.64 0.73 1.09 1.17 0.79 0.69 0.38 0.11 0.17 0.09 0.06 0.00 0.00 0.00 nan nan 0.00 0.00 0.00 0.00 0.00 0.00 nan nan nan nan 0.00 0.00 0.00
0.16 0.14 0.21 0.25 0.26 0.23 0.29 0.38 0.32 0.52 0.48 0.55 0.57 0.55 0.60 0.60 0.55 0.86 1.15 0.87 0.98 0.91 0.66 0.49 0.40 0.18 0.01 nan nan nan nan nan 0.00 0.00 0.01 0.00 nan nan nan nan nan nan nan
0.10 0.11 0.19 0.19 0.13 0.15 0.22 0.16 0.31 0.30 0.29 0.26 0.43 0.56 0.62 0.56 0.53 0.50 0.68 1.03 0.89 1.08 1.19 1.17 1.00 0.81 0.20 0.03 nan nan nan nan 0.00 0.00 0.00 nan nan nan nan nan nan nan 0.07
0.01 0.01 0.04 0.07 0.10 0.10 0.13 0.18 0.21 0.19 0.21 0.25 0.31 0.37 0.47 0.52 0.57 0.59 0.56 0.60 0.75 0.89 1.03 0.97 1.10 0.99 0.71 0.29 0.05 0.00 0.00 nan 0.00 nan 0.00 nan 0.00 nan nan 0.00 0.00 0.00 0.01
0.00 0.00 0.01 0.01 0.04 0.04 0.07 0.09 0.10 0.10 0.20 0.28 0.36 0.41 0.41 0.57 0.58 0.62 0.87 0.77 0.73 0.79 0.80 0.79 0.71 0.86 0.91 0.73 0.34 0.09 0.00 0.00 0.00 nan 0.00 0.05 0.09 0.07 0.06 0.06 0.01 0.02 0.05
0.01 0.01 0.01 0.01 0.03 0.07 0.11 0.13 0.14 0.20 0.29 0.32 0.44 0.50 0.45 0.51 0.47 0.45 0.50 nan nan nan nan nan 0.59 0.48 nan nan nan nan nan nan nan 0.09 0.12 0.17 0.09 0.13 0.13 0.10 0.14 0.17 0.25
SL_Ratio
nan nan nan nan nan nan nan nan nan nan nan nan nan nan nan nan nan nan nan nan nan nan nan nan nan nan nan nan nan nan nan nan nan nan nan nan nan nan nan nan nan nan nan
nan nan nan nan nan nan nan nan nan nan nan nan nan nan nan nan nan nan nan nan nan nan nan nan nan nan nan nan nan nan nan nan nan nan nan nan nan nan nan nan nan nan nan
nan nan nan nan nan nan nan nan nan nan nan nan nan nan nan nan nan nan nan nan nan nan nan nan nan nan nan nan nan nan nan nan nan nan nan nan nan nan nan nan nan nan nan
nan nan nan nan nan nan nan nan nan nan nan nan nan nan nan nan nan nan nan nan nan nan nan nan nan nan nan nan nan nan nan nan nan nan nan nan nan nan nan nan nan nan nan
7.5 10.0 nan nan nan nan nan nan nan nan nan nan nan nan nan nan nan nan nan nan nan nan nan nan nan nan nan nan nan nan nan nan nan nan nan nan nan nan nan nan nan nan nan
7.7 7.5 10.0 nan nan nan nan nan nan nan nan nan nan nan nan nan nan nan nan nan nan nan nan nan nan nan nan nan nan nan nan nan nan nan nan nan nan nan nan nan nan nan nan
7.7 8.0 7.8 7.7 7.5 nan nan nan nan nan nan nan nan nan nan nan nan nan nan nan nan nan nan nan nan nan nan nan nan nan nan nan nan nan nan nan nan nan nan nan nan nan nan
8.4 8.3 8.1 8.1 7.8 8.2 6.7 nan 10.0 nan nan nan nan nan nan nan nan nan nan nan nan nan nan nan nan nan nan nan nan nan nan nan nan nan nan nan nan nan nan nan nan nan nan
8.8 8.7 8.2 8.2 8.1 8.0 7.9 6.9 6.0 10.0 nan nan nan nan nan nan nan nan nan nan nan nan nan nan nan nan nan nan nan nan nan nan nan nan nan nan nan nan nan nan nan nan nan
9.2 8.8 8.5 8.4 8.2 8.0 7.9 7.8 6.3 5.3 2.9 nan nan nan nan nan nan nan nan nan nan nan nan nan nan nan nan nan nan nan nan nan nan nan nan nan nan nan nan nan nan nan nan
9.5 9.1 8.7 8.5 8.3 8.1 8.2 8.1 8.0 6.8 4.0 2.5 0.0 nan nan nan nan nan nan nan nan nan nan nan nan nan nan nan nan nan nan nan nan nan nan nan nan nan nan nan nan nan nan
9.5 9.2 8.8 8.5 8.3 8.3 8.0 8.5 8.2 8.0 7.1 5.5 5.6 3.3 nan nan nan nan nan nan nan nan nan nan nan nan nan nan nan nan nan nan nan nan nan nan nan nan nan nan nan nan nan
9.9 9.5 9.1 8.9 8.6 8.5 8.4 8.2 8.2 8.1 7.4 7.2 5.8 5.2 2.7 nan nan nan nan nan nan nan nan nan nan nan nan nan nan nan nan nan nan nan nan nan nan nan nan nan nan nan nan
10.6 10.2 9.9 9.5 8.9 8.4 8.2 8.5 7.9 7.8 7.4 7.0 6.5 5.8 4.8 3.3 5.0 nan nan nan nan nan nan nan nan nan nan nan nan nan nan nan nan nan nan nan nan nan nan nan nan nan nan
11.3 11.0 10.6 10.2 9.5 9.2 8.6 7.7 8.1 7.5 7.5 7.2 6.8 6.2 5.0 4.6 3.3 nan nan nan nan nan nan nan nan nan nan nan nan nan nan nan nan nan nan nan nan nan nan nan nan nan nan
11.8 11.3 10.7 10.3 10.0 9.7 9.3 8.6 7.6 8.0 6.7 6.9 7.1 6.3 5.7 4.2 3.6 5.0 nan nan nan nan nan nan nan nan nan nan nan nan nan nan nan nan nan nan nan nan nan nan nan nan nan
11.8 11.8 11.4 11.0 10.4 10.0 9.5 9.3 8.7 7.7 7.8 7.0 6.3 6.6 6.1 5.3 4.1 4.3 nan nan nan nan nan nan nan nan nan nan nan nan nan nan nan nan nan nan nan nan nan nan nan nan nan
10.9 10.6 10.5 10.4 10.2 9.8 9.7 9.1 8.7 8.6 8.2 7.9 6.8 6.0 6.1 5.9 4.9 3.9 5.4 nan nan nan nan nan nan nan nan nan nan nan nan nan nan nan nan nan nan nan nan nan nan nan nan
10.6 10.5 9.9 9.8 9.6 9.8 9.5 9.4 9.4 9.1 9.0 8.6 7.9 7.1 6.0 5.9 5.5 4.3 3.9 4.6 nan nan nan nan nan nan nan nan nan nan nan nan nan nan nan nan nan nan nan nan nan nan nan
10.2 10.5 9.9 9.3 8.9 9.3 9.1 9.4 9.8 9.9 9.7 8.9 8.1 7.6 7.1 6.1 5.8 4.9 4.3 3.5 5.8 5.3 nan 0.0 nan nan nan nan nan nan nan 3.3 nan nan nan nan nan nan nan nan nan 2.5 nan
11.0 10.0 9.9 10.4 9.7 9.0 9.0 9.5 9.6 10.1 9.2 8.5 7.9 7.7 7.5 7.2 6.7 5.6 5.0 3.3 3.4 5.3 5.1 5.5 5.8 6.3 nan nan nan nan nan nan 3.3 nan nan nan nan nan nan nan nan nan nan
12.1 11.6 11.6 11.1 10.4 10.1 9.5 10.3 10.7 9.9 9.2 8.5 8.1 8.0 7.6 7.6 7.0 6.7 5.8 5.3 4.0 3.6 3.4 4.5 5.0 4.9 5.8 nan nan nan nan nan nan 2.0 2.6 nan nan nan nan nan nan nan nan
12.5 12.0 12.4 12.2 11.1 11.0 10.7 11.3 10.8 10.2 9.6 9.0 8.4 8.1 7.7 7.7 7.5 7.3 6.9 6.3 5.8 5.4 5.2 4.0 3.5 3.6 5.1 5.2 nan nan nan nan nan nan nan nan nan nan nan nan nan nan 2.5
13.1 12.3 12.4 12.8 12.7 11.7 11.0 10.9 10.5 10.2 9.8 8.2 7.9 7.6 7.4 7.5 7.3 6.7 6.5 6.4 6.2 6.3 6.2 5.9 5.4 4.3 3.5 2.9 4.0 nan nan nan nan nan nan nan nan nan nan nan 2.5 nan 2.5
10.0 10.0 11.4 11.6 12.9 11.8 11.3 10.3 9.2 8.5 6.8 6.4 6.4 6.5 6.4 6.9 6.9 6.6 6.7 6.6 6.5 6.3 6.6 6.4 6.3 5.9 5.5 4.3 3.4 2.6 nan nan nan nan 3.3 3.1 3.1 3.3 3.2 3.1 3.1 3.8 3.6
8.6 8.1 7.8 8.5 6.9 6.8 6.8 5.8 5.4 5.3 5.7 5.9 6.0 6.1 6.2 6.2 6.9 7.1 6.3 nan nan nan nan nan 5.4 5.5 nan nan nan nan nan nan nan 3.1 3.2 3.6 3.3 3.3 3.4 4.3 4.7 4.3 3.6